Retour au catalogue

FENGYUN 1C DEB

ActifPO
NORAD 31327·DEBRIS·🇨🇳 China

Lancé May 10, 1999 depuis Taiyuan Satellite Launch Center

Loading…

Prochains Passages (prochaines 24 heures)

TLE

FraisSource: Space-Track

Époque: Sep 14, 2026, 14:38 UTC

1 31327U 99025BQF 26257.61034372  .00024797  00000-0  94037-3 0  9994
2 31327  98.9582 315.1047 0064504 166.4523 193.8460 15.24907996 42858

Suivez FENGYUN 1C DEB en temps réel avec AllMySat

Download on the App Store